Wind_Speed
15 15 17 16 16 17 18 20 22 23 23 24 24 23 23 25 28 17 8 10 7 5 9 14 15 19 20 6 8 1 2 7 5 1 5 6 6 3 4 6 1 3 3 18 32
16 16 16 17 16 17 18 21 22 23 24 23 23 22 22 24 24 14 13 11 14 16 10 9 10 10 4 5 5 2 1 8 3 7 6 2 7 5 3 1 3 9 18 21 29
15 16 16 18 16 18 19 21 22 22 23 23 21 21 20 19 6 6 5 5 16 14 10 13 18 11 7 5 7 8 6 4 2 6 8 8 8 2 10 4 5 11 17 20 21
15 16 16 17 17 18 19 21 22 22 21 21 19 18 18 5 1 2 6 6 8 14 7 6 6 4 6 8 9 5 9 5 11 7 10 8 9 9 8 4 5 21 14 17 14
15 16 16 17 18 18 19 20 21 22 20 18 16 15 7 3 9 12 5 2 7 10 12 9 8 6 7 5 8 6 8 2 13 9 10 14 7 8 10 16 4 16 15 19 13
15 15 16 17 18 18 19 21 21 20 18 15 14 12 2 5 7 6 3 3 5 12 12 14 7 7 5 7 5 5 10 8 11 11 8 11 6 4 6 8 12 15 15 16 18
15 15 16 17 18 18 20 21 20 19 15 13 11 6 5 16 13 11 6 8 11 14 6 19 17 4 7 7 9 3 7 5 4 10 3 5 7 4 5 7 14 13 15 17 19
16 15 15 17 18 18 20 21 20 17 13 10 9 2 7 15 15 18 12 15 17 17 18 15 11 5 3 5 8 3 5 4 4 12 4 9 8 10 7 10 8 9 16 17 18
16 16 15 16 17 18 20 21 19 16 12 8 5 4 9 18 10 21 18 19 15 6 3 4 3 2 5 2 4 3 4 4 1 21 9 7 6 11 8 10 9 9 10 17 15
17 16 16 15 16 17 20 21 17 15 5 2 10 6 8 5 11 18 19 20 4 5 2 1 1 1 3 2 3 3 3 5 7 12 20 13 7 8 11 13 11 10 9 10 12
17 16 15 15 14 16 19 9 1 1 4 8 6 5 13 12 7 5 7 16 5 4 3 4 3 1 3 2 8 8 13 10 7 9 10 15 10 11 9 12 12 10 9 9 11
17 16 14 14 14 14 12 4 7 6 8 15 19 19 26 19 6 13 18 5 6 5 4 3 3 4 11 10 11 9 12 1 8 5 7 6 12 12 9 12 14 13 11 13 8
16 16 14 12 13 14 13 17 17 13 4 9 14 11 7 11 8 14 5 7 3 4 1 4 3 4 8 13 15 7 4 2 3 4 2 3 2 2 6 7 12 14 14 13 15
17 16 13 10 9 7 7 14 2 2 3 6 7 8 7 9 6 15 19 8 3 6 4 3 5 3 9 16 19 8 13 2 0 3 2 4 2 1 4 9 8 12 11 11 11
18 17 15 13 8 6 8 10 10 5 4 5 9 10 9 9 1 5 25 9 7 6 4 3 5 0 6 14 11 7 11 6 5 2 4 2 4 6 5 5 5 9 11 15 17
20 19 15 13 13 18 7 13 4 1 7 4 8 7 8 10 7 5 5 2 4 7 8 8 5 5 5 7 8 3 2 4 5 3 2 10 5 4 7 18 4 6 4 9 10
21 22 24 13 5 14 9 5 1 4 6 8 11 10 9 6 8 8 7 5 4 3 3 3 8 3 4 10 6 6 4 3 5 6 4 4 5 8 8 9 17 17 14 5 9
22 24 25 25 21 11 3 3 8 11 10 5 10 8 9 6 9 11 5 6 8 7 3 6 3 2 5 4 4 5 3 4 4 1 5 5 4 5 3 7 14 14 8 6 9
22 25 16 28 24 11 2 9 8 6 8 4 9 10 9 11 6 9 8 7 9 12 6 4 3 4 7 5 4 1 4 6 5 2 3 4 3 4 6 6 8 10 9 8 9
20 12 15 25 19 9 5 13 6 14 8 8 8 8 8 10 10 6 8 8 8 12 7 2 4 3 7 5 8 5 4 2 3 2 3 4 3 3 6 5 6 9 9 9 9
15 4 10 25 18 4 12 15 15 21 12 5 4 5 8 7 11 7 6 7 8 4 10 6 4 2 6 2 11 2 3 2 4 5 5 1 4 2 8 8 9 9 13 12 10
9 6 23 37 7 4 13 11 12 21 14 10 5 1 1 8 5 7 5 8 4 8 5 8 5 4 14 20 14 6 6 6 5 5 3 5 5 2 7 8 9 8 12 13 13
6 5 28 33 11 12 9 14 19 17 16 6 4 3 3 4 5 8 8 6 4 5 6 2 2 3 1 4 3 3 5 4 3 4 4 5 5 3 6 5 5 5 8 10 12
5 7 5 9 5 19 15 15 21 18 20 20 11 7 5 5 5 5 3 1 5 4 2 7 0 5 6 6 4 4 5 6 4 4 4 6 4 10 8 8 7 6 4 8 12
4 9 7 11 16 11 17 12 18 15 16 12 12 8 8 5 5 0 4 3 2 1 2 4 4 1 4 5 5 4 1 5 4 5 6 8 7 10 2 7 1 4 0 3 6
5 6 6 3 15 17 14 22 25 22 13 19 15 10 9 7 8 7 5 5 5 1 3 1 3 3 1 5 7 4 6 6 6 6 5 3 4 4 7 7 8 7 7 8 8
10 5 7 9 14 17 20 17 21 19 15 19 10 7 7 9 4 4 3 9 9 9 7 6 4 3 2 4 6 6 7 5 6 4 3 3 5 9 9 9 7 8 9 7 7
Wind_Direction
319 319 323 324 324 328 329 331 332 333 330 328 327 331 328 323 319 314 249 230 252 289 260 293 280 253 239 246 272 281 277 274 305 77 171 224 150 216 191 290 288 208 93 122 143
318 316 317 321 320 324 327 330 330 331 329 328 329 329 328 331 318 270 291 264 253 265 232 260 272 259 235 235 257 189 140 249 148 160 171 147 18 28 324 285 196 108 87 105 131
315 315 316 319 318 320 324 327 328 329 328 328 330 328 331 332 294 242 343 297 231 239 249 255 282 292 285 240 251 248 214 184 123 65 93 100 80 15 328 253 161 138 139 148 135
309 315 314 316 316 317 322 324 325 326 327 328 330 328 330 324 261 333 337 1 220 228 232 244 259 257 261 263 262 234 245 122 175 132 128 113 141 120 257 265 132 130 160 141 146
302 311 313 313 313 314 318 321 324 324 326 328 327 330 345 266 252 270 276 23 184 188 220 238 261 253 251 270 293 217 247 86 129 148 126 139 212 128 233 234 146 127 139 146 139
294 304 311 310 310 312 316 319 321 322 323 324 323 327 290 269 261 227 157 63 174 178 244 253 256 281 278 307 6 51 65 66 106 122 104 150 205 163 304 97 154 147 160 130 134
286 297 307 308 308 310 314 317 317 318 319 317 316 331 262 245 282 288 299 259 220 188 223 263 283 296 336 352 328 81 71 68 51 102 69 61 358 331 180 252 169 175 145 144 152
279 288 299 303 306 309 312 313 313 312 310 308 304 291 252 269 286 290 272 259 244 233 228 267 319 344 63 324 345 73 64 44 150 87 44 97 270 284 251 210 160 135 135 152 168
272 280 291 299 303 307 310 309 307 300 303 300 309 206 265 303 242 242 236 248 243 199 249 250 9 299 330 292 337 17 77 287 306 131 183 175 247 249 231 135 131 134 130 142 152
265 273 284 294 300 307 310 309 298 294 309 247 265 310 264 247 234 238 235 233 199 127 132 167 196 17 329 110 215 250 216 246 218 201 179 200 223 169 176 149 154 149 150 147 150
256 266 277 290 298 308 317 334 8 337 221 211 188 245 293 326 319 288 275 191 192 145 198 210 76 262 257 212 240 243 239 235 255 190 174 200 180 179 184 156 158 165 162 157 148
247 258 270 285 294 300 302 263 260 7 296 237 243 255 261 287 299 306 244 209 179 164 259 48 126 259 302 315 284 255 282 309 343 233 157 159 194 184 178 173 167 168 165 166 143
245 250 259 279 290 288 251 244 270 337 299 280 221 222 227 234 242 264 241 223 223 145 358 113 206 253 300 312 311 328 336 304 197 324 11 63 97 309 207 166 176 178 175 167 155
236 237 246 262 282 285 247 310 326 187 322 266 198 218 208 233 252 231 256 182 205 157 97 197 201 241 298 282 291 220 265 199 169 81 228 53 228 278 293 209 187 178 179 168 161
230 225 231 229 288 292 301 32 202 161 337 210 156 181 178 194 157 231 238 242 223 156 125 245 151 19 269 262 213 205 221 193 195 199 352 312 107 266 218 255 281 214 184 178 172
226 218 216 231 250 247 323 345 165 79 250 236 151 162 174 218 253 278 196 68 170 171 174 205 147 187 227 250 243 92 18 55 84 143 186 227 118 290 215 225 216 247 252 169 162
217 212 213 195 218 2 256 306 114 210 282 191 160 165 204 185 234 263 166 172 196 167 175 214 224 201 183 267 23 57 50 359 8 10 240 341 125 235 231 214 206 211 237 169 131
215 207 218 222 223 284 255 214 217 193 242 45 153 179 187 221 208 248 204 198 225 222 179 159 329 348 10 332 180 58 107 153 149 202 281 162 235 250 182 195 199 196 198 171 132
213 197 211 230 224 252 246 214 197 223 213 243 159 171 199 230 226 209 205 221 203 213 194 158 353 334 340 340 305 147 84 269 131 304 57 253 33 18 96 66 118 171 177 143 140
178 167 219 220 212 207 225 222 236 252 310 310 216 176 180 209 232 196 212 219 238 197 170 138 119 353 263 317 320 166 194 184 334 157 261 315 333 185 138 149 134 147 156 161 158
170 165 216 197 179 213 218 220 231 269 284 257 310 211 199 192 214 201 235 248 217 149 110 140 127 292 25 238 238 250 260 268 153 143 173 167 282 173 173 158 180 189 174 171 168
172 192 167 155 171 217 226 209 236 260 269 271 256 271 271 219 233 188 221 219 198 137 142 189 132 151 224 244 255 178 195 180 123 265 191 147 269 169 146 173 177 208 184 177 172
179 167 165 161 195 217 221 217 235 250 258 273 229 212 274 270 177 198 217 309 57 110 144 130 242 78 271 286 330 232 234 220 175 98 195 133 258 229 173 162 178 189 182 173 176
157 182 156 209 214 196 202 209 219 245 261 262 261 233 280 285 256 238 118 12 20 88 185 99 345 149 188 215 230 270 216 263 174 114 208 203 251 301 245 198 203 207 140 180 178
207 192 176 192 211 214 192 193 206 229 222 247 266 220 211 238 249 5 125 102 70 323 119 117 169 279 295 313 334 296 351 331 316 227 150 236 211 252 332 122 164 172 303 163 160
189 184 153 152 187 205 202 207 201 218 231 235 232 242 225 197 190 197 165 144 172 146 148 233 204 128 318 338 20 15 332 312 301 301 325 342 266 232 178 112 84 74 64 72 43
221 271 153 190 185 188 209 202 212 210 232 238 211 232 225 227 207 202 183 162 159 150 184 150 133 87 234 357 9 350 248 237 245 275 246 278 297 67 59 59 61 61 54 57 78
Height
833 831 830 828 826 824 822 820 818 815 812 809 806 801 799 794 789 787 782 771 772 773 774 774 773 771 772 774 768 768 799 804 793 789 796 788 784 785 775 785 784 780 783 782 795
831 830 828 826 824 823 820 818 816 812 810 807 804 800 797 794 788 780 768 767 768 772 773 773 771 768 775 771 771 778 800 792 773 783 790 790 789 787 785 780 786 785 792 796 800
828 827 826 825 822 821 818 816 813 810 808 806 803 800 796 794 789 771 767 765 766 771 772 772 771 771 773 768 770 773 791 770 769 777 786 792 794 793 793 784 779 787 789 799 807
826 825 824 823 820 819 817 814 811 808 806 804 801 798 795 794 791 767 765 765 767 771 771 770 769 776 775 777 764 776 762 762 773 786 787 793 786 792 788 776 778 781 792 799 806
824 823 822 820 819 817 815 812 809 807 804 802 800 798 795 794 780 766 765 764 767 770 769 768 770 768 776 768 765 765 758 755 761 779 778 784 787 780 787 776 779 776 788 796 807
821 820 819 818 817 815 812 810 806 804 802 800 799 798 797 795 765 765 765 765 766 769 768 765 764 760 764 765 767 758 761 762 768 777 782 785 787 786 779 772 779 781 788 796 801
818 817 817 815 814 812 809 807 804 802 800 799 798 798 796 780 763 764 765 764 765 765 765 761 760 762 763 769 758 761 772 767 765 781 785 774 786 787 787 784 778 781 786 794 798
815 814 814 812 811 809 807 804 801 799 798 798 797 798 789 764 763 761 761 761 762 762 762 760 760 758 762 762 765 771 772 791 775 777 784 782 802 780 778 782 780 779 786 792 799
811 811 811 809 808 806 804 801 798 796 796 796 797 797 783 763 760 757 758 757 756 759 760 761 760 765 766 778 787 777 797 791 784 778 786 786 795 778 773 775 782 783 786 789 793
808 808 809 807 806 804 801 798 795 794 793 794 796 801 774 761 755 753 754 755 756 758 763 764 769 780 779 786 808 794 794 788 790 774 778 779 785 776 772 772 780 783 785 787 789
804 806 806 806 804 803 800 796 795 796 792 786 780 774 760 758 752 752 750 752 754 762 780 768 786 794 779 772 776 780 784 787 770 761 772 777 782 775 772 772 779 783 786 787 788
800 803 804 804 803 801 801 799 791 795 788 773 769 767 761 761 762 753 751 760 761 779 770 778 796 781 774 776 778 776 781 778 767 757 766 772 780 771 768 770 771 778 782 784 787
797 800 801 802 801 799 797 792 788 790 792 763 754 758 757 757 760 756 751 753 762 771 776 787 783 770 775 781 785 785 782 782 779 768 761 766 785 780 768 765 768 769 771 777 783
794 797 799 801 803 796 793 786 786 790 803 767 750 748 751 752 758 744 745 751 758 774 777 780 769 773 782 785 782 796 769 774 771 781 801 774 815 782 777 772 768 771 777 778 782
790 793 797 800 796 795 790 785 786 790 820 744 745 737 741 752 744 744 740 747 762 773 774 779 776 779 785 778 769 775 764 767 772 784 787 790 805 793 770 781 776 769 770 769 771
785 790 794 796 796 789 787 787 788 804 808 750 739 746 752 749 747 741 742 738 744 763 764 770 764 771 773 759 758 756 767 772 788 794 815 787 796 802 787 769 769 764 765 766 771
779 785 789 792 791 789 788 791 805 805 750 747 749 745 752 755 753 749 754 760 772 781 784 776 770 762 767 779 765 769 783 817 826 832 822 773 793 789 763 760 756 759 762 765 768
776 781 784 787 787 790 790 796 800 767 757 728 737 744 757 751 753 753 756 770 760 766 780 791 796 777 765 768 773 782 787 818 824 834 821 785 795 781 752 753 751 754 763 768 770
773 775 781 781 786 791 792 795 780 757 738 738 736 753 757 751 751 756 761 764 757 756 781 782 793 771 760 765 770 783 797 782 803 811 834 799 772 762 756 756 756 764 768 769 771
767 771 773 777 785 790 788 775 763 738 735 738 749 743 760 755 755 758 760 746 750 745 747 770 798 786 777 766 761 771 765 800 802 813 814 798 784 789 772 767 762 766 769 770 771
763 766 762 772 783 786 776 768 761 734 737 740 738 741 743 750 748 755 754 743 736 740 745 764 780 794 776 781 777 775 778 773 781 802 822 834 806 759 765 763 764 766 763 765 769
752 757 752 762 780 777 769 760 758 739 736 740 729 733 738 740 744 751 751 744 726 732 750 752 781 804 789 764 762 756 770 775 819 797 802 825 809 755 757 757 757 757 755 758 761
741 748 752 752 763 764 759 757 752 742 739 736 731 728 728 738 748 745 742 737 727 734 746 749 769 798 788 778 757 761 758 757 767 792 796 828 809 756 751 752 750 753 754 756 758
733 743 746 748 734 742 751 749 750 738 740 731 730 726 733 739 733 740 747 738 733 741 747 743 758 777 800 781 767 765 760 757 768 813 797 801 781 766 760 756 753 750 749 754 754
722 716 715 726 731 733 737 739 746 744 733 726 730 729 734 743 737 740 741 745 739 747 741 750 769 758 760 760 760 758 759 762 765 769 792 781 774 762 754 756 749 752 751 751 754
710 703 708 711 721 731 728 728 730 730 728 728 735 725 725 736 736 738 735 739 746 747 747 747 770 760 767 761 766 771 764 761 763 759 758 761 765 747 750 750 754 754 755 758 759
701 696 700 707 714 723 714 720 722 722 718 716 719 724 727 722 716 719 716 723 730 745 754 757 766 786 785 781 778 797 769 763 760 756 757 770 764 756 760 758 759 759 759 759 760